[[{"header":{"parameterUnit":"m.s-1","parameterCategory":1,"la1":30.2991,"la2":30.254,"lo1":-89.0895,"lo2":-89.0444,"dy":0.0017,"dx":0.0017,"nx":28,"ny":28,"refTime":"2024-08-04T21:00:00:Z","depth":0,"parameterNumber":2,"parameterNumberName":"U-component_of_WINDS"},"data":[0,0,0,0,0,0,0,0,0,0,0,0,0,0,0,0,0,0,0,0,0,0,0,0,0,0,0,0,0,0,0,0,0,0,0,0,0,0,0,0,0,0,0,0,0,0,0,0,0,0,0,0,0,0,0,0,0,0,3.9275,3.9275,0,3.93,3.9301,3.9301,3.9221,3.9218,3.9216,3.9214,3.9236,3.9239,3.9242,0,0,0,0,0,0,0,0,0,0,0,0,0,3.9154,3.9157,3.9275,3.9275,3.9276,3.93,3.9301,3.9301,3.9221,3.9218,3.9215,3.9213,3.9235,3.9239,3.9242,0,0,0,0,0,0,0,0,0,0,0,0,0,3.9196,3.9158,3.9275,3.9239,3.9236,3.93,3.9301,3.9301,3.9222,3.9218,3.9215,3.9211,3.9234,3.9238,3.9243,3.9342,0,0,3.9256,3.9258,0,0,0,0,0,0,0,0,3.9194,3.92,3.9244,3.9241,3.9238,3.9254,3.9266,3.9315,3.9223,3.9227,3.9214,3.9209,3.9245,3.9248,3.9261,3.9343,3.9344,3.9256,3.9259,3.9261,3.9262,0,0,0,0,0,0,0,3.9191,3.9199,3.9285,3.9245,3.9241,3.922,3.9222,3.9275,3.9256,3.9226,3.9221,3.9225,3.9243,3.9257,3.9261,3.9344,3.9256,3.926,3.9262,3.9264,3.951,3.9514,0,0,0,0,0,0,3.9193,3.9197,3.9284,3.9285,3.9207,3.9226,3.9228,3.9252,3.9255,3.9252,3.9228,3.9221,3.9251,3.9256,3.9261,3.9378,3.9261,3.9265,3.9267,3.9506,3.9511,3.9515,0,0,0,0,0,0,3.9191,3.9202,3.9283,3.924,3.9249,3.9232,3.926,3.9255,3.9269,3.9256,3.9252,3.9246,3.9248,3.9255,3.9323,3.9377,3.9266,3.927,3.9501,3.9507,3.9513,3.9612,0,0,0,0,0,0,3.9188,3.9201,3.9239,3.9241,3.9251,3.9345,3.9263,3.9258,3.9277,3.9268,3.9272,3.927,3.9246,3.9317,3.9327,3.9381,3.9274,3.9496,3.9504,3.9511,3.9604,3.9621,3.9635,0,0,0,0,0,3.9184,3.9265,3.9242,3.9253,3.9299,3.9349,3.9354,3.9326,3.9282,3.9319,3.9312,3.9269,3.937,3.9324,3.9335,3.9392,3.9493,3.9502,3.951,3.9597,3.9617,3.9635,0,0,0,0,0,0,3.9269,3.9265,3.9239,3.9324,3.9337,3.9335,3.9382,3.9349,3.9375,3.9365,3.9329,3.933,3.9405,3.9405,3.9354,3.9488,3.9423,3.9435,3.9486,3.9505,3.952,3.9519,3.9277,0,0,0,0,0,3.9298,3.934,3.9333,3.9409,3.9417,3.9399,3.9419,3.9397,3.9409,3.9414,3.9411,3.9424,3.9458,3.9482,3.9512,3.9604,3.9603,3.9648,3.9664,3.9677,3.9687,3.9735,3.9755,3.9544,3.9544,3.9544,0,0,3.9357,3.936,3.9389,3.9426,3.9434,3.9478,3.9404,3.9453,3.9485,3.9421,3.9485,3.9484,3.9496,3.9576,3.9611,3.9578,3.9745,3.9688,3.9698,3.9701,3.9747,3.9767,3.9784,3.955,3.9549,3.9548,0,0,3.9488,3.9495,3.9559,3.9569,3.9583,3.957,3.9585,3.9589,3.9586,3.965,3.9604,3.964,3.97,3.9711,3.9724,3.9861,3.9823,3.9872,3.9953,4.0001,4.0018,4.0032,4.0081,4.0099,3.9882,3.9882,3.9883,0,3.956,3.9625,3.9595,3.9648,3.9666,3.9613,3.9677,3.9688,3.971,3.9723,3.9687,3.9762,3.9766,3.9848,3.9882,3.9894,3.991,3.9871,4.0018,4.0032,4.0046,4.0092,4.011,3.9888,3.9888,3.9887,3.9886,0,3.9712,3.9758,3.9808,3.9834,3.9857,3.9915,3.9894,3.9921,3.9898,3.9889,3.9955,3.9958,3.9989,4.0007,3.9983,4.0087,4.0066,4.0025,3.9958,4.0072,4.0115,4.0132,3.9897,3.9895,3.9893,3.9891,0,0,3.9896,3.9906,3.9925,3.9936,3.9948,3.9982,4.0038,4.007,4.0094,4.0112,4.0158,4.0211,4.0173,4.0188,4.0165,4.0207,4.0316,4.016,4.016,4.0189,4.043,4.0461,4.0482,4.0291,4.0295,4.0297,4.0429,0,4.0026,4.0123,4.0099,4.0195,4.0237,4.0187,4.0236,4.0248,4.0242,4.0276,4.0268,4.0306,4.0253,4.0262,4.0302,4.0295,4.0364,4.0285,4.0333,4.0335,4.0331,4.0504,4.0537,4.0661,4.0445,4.0448,4.045,0,4.0189,4.0215,4.0316,4.0322,4.0339,4.0383,4.0411,4.0444,4.0457,4.0449,4.0468,4.0437,4.0491,4.0426,4.05,4.0447,4.0465,4.0465,4.0469,4.0472,4.0399,4.0512,4.07,4.0719,4.0476,4.0474,4.0472,0,4.0314,4.0374,4.0442,4.0453,4.0462,4.0495,4.0499,4.0509,4.053,4.0554,4.0567,4.0597,4.0613,4.0636,4.0614,4.0568,4.0692,4.0624,4.0686,4.0687,4.0714,4.0713,4.0908,4.0727,4.0727,4.0726,4.0726,0,4.0461,4.0524,4.0499,4.0541,4.0611,4.0582,4.0652,4.0651,4.066,4.07,4.0658,4.0697,4.0665,4.0701,4.0684,4.0749,4.0756,4.0751,4.0745,4.0755,4.0755,4.0766,4.0756,4.0731,4.073,4.0729,4.0728,0,4.0611,4.0597,4.0668,4.0671,4.0674,4.0725,4.0727,4.0766,4.0757,4.0808,4.0819,4.0804,4.0844,4.0825,4.0866,4.0854,4.0938,4.0921,4.0934,4.0929,4.0993,4.0987,4.1201,4.1227,4.103,4.1032,4.1033,0,4.0706,4.0754,4.0763,4.0788,4.0797,4.0837,4.0859,4.0832,4.0857,4.0876,4.0912,4.0949,4.0976,4.1043,4.1035,4.1066,4.105,4.1123,4.1054,4.1062,4.1051,4.1048,4.1053,4.1136,4.1138,4.114,4.1142,0,4.0876,4.0867,4.09,4.0932,4.096,4.0983,4.1003,4.1025,4.1,4.1029,4.107,4.1092,4.1135,4.1172,4.1199,4.1203,4.1168,4.1164,4.118,4.1189,4.1195,4.1193,4.0971,4.1159,4.1157,4.1156,4.1155,4.1154,4.1001,4.1042,4.1056,4.1095,4.1107,4.1127,4.1164,4.116,4.1194,4.1228,4.121,4.1258,4.127,4.1303,4.1312,4.1349,4.132,4.1343,4.1349,4.1355,4.1363,4.119,4.1353,4.1353,4.1352,4.1352,4.1352,0,4.1169,4.1176,4.1212,4.1242,4.1273,4.1239,4.1259,4.1287,4.133,4.1345,4.1374,4.1421,4.1457,4.1453,4.1485,4.1515,4.15,4.1525,4.1522,4.1523,4.1387,4.137,4.1536,4.1536,4.1536,4.1536,4.1536,4.1536,4.126,4.1328,4.132,4.1393,4.1399,4.1447,4.1461,4.1479,4.149,4.1546,4.1576,4.1574,4.1581,4.1613,4.1645,4.1642,4.1656,4.1687,4.1679,4.1551,4.1533,4.1516,4.1499,4.169,4.169,4.1811,4.1813,4.1813]},{"header":{"parameterUnit":"m.s-1","parameterCategory":1,"la1":30.2991,"la2":30.254,"lo1":-89.0895,"lo2":-89.0444,"dy":0.0017,"dx":0.0017,"nx":28,"ny":28,"refTime":"2024-08-04T21:00:00:Z","depth":0,"parameterNumber":3,"parameterNumberName":"V-component_of_WINDS"},"data":[0,0,0,0,0,0,0,0,0,0,0,0,0,0,0,0,0,0,0,0,0,0,0,0,0,0,0,0,0,0,0,0,0,0,0,0,0,0,0,0,0,0,0,0,0,0,0,0,0,0,0,0,0,0,0,0,0,0,-1.9941,-1.9942,0,-1.9998,-1.9999,-1.9999,-1.9994,-1.9993,-1.9992,-1.9991,-2.005,-2.0052,-2.0055,0,0,0,0,0,0,0,0,0,0,0,0,0,-1.9831,-1.9833,-1.9941,-1.9942,-1.9943,-1.9998,-1.9999,-2.0,-1.9994,-1.9993,-1.9992,-1.9991,-2.0049,-2.0052,-2.0055,0,0,0,0,0,0,0,0,0,0,0,0,0,-1.9882,-1.9834,-1.9941,-1.9946,-1.9948,-1.9998,-1.9999,-2.0,-1.9994,-1.9993,-1.9992,-1.999,-2.0048,-2.0052,-2.0055,-2.0104,0,0,-2.0066,-2.0068,0,0,0,0,0,0,0,0,-1.9879,-1.9886,-1.9945,-1.9946,-1.9947,-1.9988,-1.9981,-2.0035,-1.9995,-1.9977,-1.9991,-1.999,-2.003,-2.0035,-2.0049,-2.0107,-2.0109,-2.0067,-2.0069,-2.007,-2.0071,0,0,0,0,0,0,0,-1.9876,-1.9884,-1.9964,-1.9946,-1.9947,-1.9947,-1.9953,-1.9991,-2.001,-1.9978,-1.9978,-1.9985,-2.0031,-2.0045,-2.005,-2.011,-2.0066,-2.007,-2.0072,-2.0073,-2.0214,-2.0216,0,0,0,0,0,0,-1.9871,-1.9881,-1.9962,-1.9965,-1.991,-1.995,-1.9957,-1.9976,-2.001,-2.0014,-1.9986,-1.9984,-2.004,-2.0046,-2.0052,-2.0113,-2.007,-2.0074,-2.0076,-2.0213,-2.0215,-2.0216,0,0,0,0,0,0,-1.9868,-1.9878,-1.996,-1.9923,-1.9934,-1.9954,-1.9975,-1.9978,-1.9992,-2.0016,-2.0019,-1.9997,-2.0039,-2.0047,-2.0092,-2.0115,-2.0075,-2.0078,-2.0211,-2.0213,-2.0216,-2.0234,0,0,0,0,0,0,-1.9865,-1.9877,-1.9895,-1.9924,-1.9936,-1.9997,-1.9977,-1.998,-1.9999,-1.9997,-2.0027,-2.0031,-2.0039,-2.0087,-2.0095,-2.0119,-2.0081,-2.0209,-2.0212,-2.0215,-2.0231,-2.0236,-2.0241,0,0,0,0,0,-1.9861,-1.9897,-1.9895,-1.9905,-1.9958,-1.9998,-2.0005,-2.0013,-2.0,-2.0019,-2.0035,-2.003,-2.0112,-2.0091,-2.0101,-2.0126,-2.0207,-2.0211,-2.0215,-2.0229,-2.0235,-2.0241,0,0,0,0,0,0,-1.9868,-1.99,-1.9899,-1.9945,-1.9969,-1.9997,-2.002,-2.002,-2.0048,-2.0045,-2.0055,-2.0062,-2.0107,-2.0122,-2.0098,-2.0177,-2.0158,-2.0164,-2.0165,-2.0172,-2.0177,-2.0172,-2.0084,0,0,0,0,0,-1.9876,-1.9905,-1.9932,-1.997,-1.9982,-2.0,-2.0017,-2.0022,-2.0048,-2.0058,-2.0076,-2.0101,-2.0133,-2.0154,-2.0184,-2.0234,-2.0242,-2.0257,-2.0262,-2.0266,-2.027,-2.0301,-2.0308,-2.0228,-2.0228,-2.0228,0,0,-1.989,-1.9911,-1.9929,-1.9972,-1.9991,-2.0023,-2.0008,-2.0041,-2.0065,-2.0063,-2.0106,-2.0121,-2.0151,-2.0199,-2.0221,-2.0212,-2.0295,-2.027,-2.0273,-2.0276,-2.0305,-2.0313,-2.032,-2.0231,-2.023,-2.023,0,0,-1.9932,-1.9951,-1.9986,-2.0006,-2.0036,-2.0049,-2.0057,-2.0087,-2.0097,-2.0141,-2.0141,-2.0171,-2.0224,-2.0246,-2.0264,-2.032,-2.0318,-2.033,-2.0355,-2.0385,-2.0391,-2.0397,-2.0418,-2.0425,-2.0335,-2.0335,-2.0335,0,-1.9946,-1.9993,-2.0004,-2.0038,-2.0058,-2.0059,-2.0096,-2.0115,-2.0154,-2.0168,-2.0158,-2.0228,-2.0247,-2.0302,-2.0316,-2.0331,-2.0342,-2.0325,-2.0389,-2.0395,-2.0401,-2.0421,-2.0429,-2.0336,-2.0336,-2.0336,-2.0336,0,-2.001,-2.0043,-2.0068,-2.0106,-2.0129,-2.0164,-2.0182,-2.0204,-2.0209,-2.0223,-2.027,-2.0294,-2.033,-2.0344,-2.0348,-2.0401,-2.0395,-2.0387,-2.0368,-2.0409,-2.0429,-2.0437,-2.0338,-2.0338,-2.0337,-2.0337,0,0,-2.0054,-2.0101,-2.011,-2.0129,-2.0164,-2.0191,-2.0228,-2.0265,-2.0284,-2.0312,-2.0345,-2.0393,-2.0387,-2.0408,-2.0415,-2.0441,-2.0487,-2.0431,-2.0432,-2.044,-2.0548,-2.0553,-2.0562,-2.0486,-2.0488,-2.0489,-2.0546,0,-2.01,-2.0165,-2.0178,-2.0234,-2.0267,-2.0271,-2.0304,-2.033,-2.0346,-2.0376,-2.0394,-2.0428,-2.0417,-2.043,-2.0457,-2.0475,-2.0508,-2.0472,-2.0517,-2.0518,-2.0508,-2.0572,-2.0576,-2.0629,-2.0554,-2.0555,-2.0556,0,-2.0161,-2.0192,-2.0252,-2.0287,-2.0301,-2.033,-2.0367,-2.0396,-2.0427,-2.0437,-2.0463,-2.0468,-2.0509,-2.049,-2.0548,-2.0523,-2.0543,-2.0556,-2.0558,-2.0561,-2.0538,-2.0577,-2.0646,-2.0654,-2.0568,-2.0567,-2.0566,0,-2.0188,-2.0245,-2.0289,-2.0305,-2.0347,-2.0368,-2.0386,-2.0416,-2.0439,-2.0472,-2.0487,-2.0524,-2.0544,-2.0573,-2.059,-2.0574,-2.0647,-2.0629,-2.0657,-2.0657,-2.067,-2.0669,-2.0743,-2.0685,-2.0684,-2.0684,-2.0684,0,-2.0237,-2.0274,-2.0302,-2.0329,-2.0372,-2.0388,-2.043,-2.0449,-2.0477,-2.0509,-2.0516,-2.0546,-2.0566,-2.06,-2.0613,-2.066,-2.0669,-2.0679,-2.0682,-2.0678,-2.0676,-2.069,-2.0686,-2.0686,-2.0686,-2.0686,-2.0685,0,-2.0273,-2.0293,-2.0342,-2.0379,-2.039,-2.0419,-2.0452,-2.0479,-2.0497,-2.0537,-2.0548,-2.0575,-2.0616,-2.0636,-2.0686,-2.0695,-2.0748,-2.0749,-2.0738,-2.0739,-2.0766,-2.0763,-2.085,-2.0863,-2.0797,-2.0797,-2.0798,0,-2.0302,-2.0331,-2.0373,-2.0395,-2.0414,-2.045,-2.0473,-2.0492,-2.0517,-2.0558,-2.0581,-2.0622,-2.0656,-2.0721,-2.0746,-2.0785,-2.0787,-2.0815,-2.0793,-2.0789,-2.0788,-2.0786,-2.079,-2.0818,-2.0819,-2.0819,-2.082,0,-2.0353,-2.0363,-2.0397,-2.0436,-2.0464,-2.0495,-2.0526,-2.0545,-2.0569,-2.0597,-2.0639,-2.0665,-2.0718,-2.0759,-2.0802,-2.0822,-2.0826,-2.0827,-2.0836,-2.0832,-2.0824,-2.0829,-2.0748,-2.0825,-2.0824,-2.0824,-2.0823,-2.0823,-2.0387,-2.0414,-2.0448,-2.0487,-2.0513,-2.0542,-2.0571,-2.0593,-2.0629,-2.0673,-2.0683,-2.0728,-2.0763,-2.082,-2.0843,-2.0879,-2.0873,-2.0885,-2.0889,-2.0891,-2.0893,-2.0819,-2.0887,-2.0887,-2.0887,-2.0887,-2.0887,0,-2.0438,-2.0461,-2.0497,-2.0541,-2.0572,-2.0575,-2.061,-2.0637,-2.0676,-2.0709,-2.0743,-2.0793,-2.0835,-2.0865,-2.0907,-2.0931,-2.0934,-2.0942,-2.094,-2.0945,-2.0896,-2.0884,-2.0939,-2.0939,-2.0939,-2.0939,-2.0939,-2.0939,-2.0468,-2.0515,-2.0529,-2.059,-2.0614,-2.0658,-2.0679,-2.0707,-2.0734,-2.0789,-2.0824,-2.0844,-2.0877,-2.0923,-2.0962,-2.097,-2.0985,-2.0993,-2.1001,-2.0954,-2.0948,-2.0943,-2.0932,-2.0996,-2.0996,-2.1048,-2.1048,-2.1049]}]]